AMC-6

Last updated on Thu Jul 03 2025 00:02:44 GMT+0000 (Coordinated Universal Time)

1 26580U 00067A 25183.53986236 .00000096 00000+0 00000+0 0 9998 2 26580 0.0451 63.5829 0003593 37.4170 239.1212 1.00270138 90380
UTC large
Height (km)
Speed (km/s)
/
Latitude / Longitude
Inclination (degrees)
Orbital Period (minutes)
Azimuth
Elevation
Range (km)
Doppler Factor

Next 0 passes for location: London (51.5072 / 0.1276)

Sorry there are no passes over London.